FW5633 Weather Reports


time (UTC)temp
C
wind
direction
speed
KPH
gust
KPH
rain 1hr
cm
rain 24hr
cm
rain mn
cm
humidity
%
barometer
mb
20260507233536 10 306 11.3 20.9 0.00 0.00 0.00 50 1012.1
20260507233036 10 304 4.8 17.7 0.00 0.00 0.00 52 1012.1
20260507232535 10 285 6.4 30.6 0.00 0.00 0.00 50 1012.1
20260507232036 11 287 16.1 30.6 0.00 0.00 0.00 50 1012.1
20260507231535 11 273 9.7 27.4 0.00 0.00 0.00 52 1011.9
20260507231035 11 288 8.0 22.5 0.00 0.00 0.00 52 1011.9
20260507230535 10 240 8.0 20.9 0.00 0.00 0.00 53 1012.0
20260507230035 10 315 11.3 25.7 0.00 0.00 0.00 52 1012.1
20260507225535 10 261 11.3 25.7 0.00 0.00 0.00 53 1012.0
20260507225035 10 220 12.9 24.1 0.00 0.00 0.00 54 1012.0
20260507224535 10 243 9.7 17.7 0.00 0.00 0.00 58 1012.1
20260507224034 10 192 9.7 16.1 0.00 0.00 0.00 57 1012.1
20260507223536 10 233 4.8 29.0 0.00 0.00 0.00 58 1012.1
20260507223034 10 234 11.3 20.9 0.00 0.00 0.00 57 1011.9
20260507222536 10 320 6.4 27.4 0.00 0.00 0.00 56 1012.0
20260507222033 10 329 12.9 27.4 0.00 0.00 0.00 55 1011.9
20260507221534 10 306 11.3 22.5 0.00 0.00 0.00 54 1011.9
20260507221033 10 307 9.7 20.9 0.00 0.00 0.00 54 1011.8
20260507220532 11 322 9.7 20.9 0.00 0.00 0.00 52 1011.9
20260507220032 11 286 8.0 17.7 0.00 0.00 0.00 51 1011.8
20260507215532 11 285 4.8 20.9 0.00 0.00 0.00 49 1011.7
20260507215031 11 293 9.7 24.1 0.00 0.00 0.00 52 1011.8
20260507214531 11 229 11.3 24.1 0.00 0.00 0.00 51 1011.8
20260507214031 11 256 12.9 24.1 0.00 0.00 0.00 51 1011.8
20260507213531 11 232 8.0 27.4 0.00 0.00 0.00 51 1011.7
20260507213031 11 277 14.5 27.4 0.00 0.00 0.00 49 1011.5
20260507212532 12 355 6.4 25.7 0.00 0.00 0.00 48 1011.6
20260507212030 12 298 9.7 22.5 0.00 0.00 0.00 49 1011.4
20260507211529 12 263 8.0 20.9 0.00 0.00 0.00 49 1011.3
20260507211029 12 285 6.4 17.7 0.00 0.00 0.00 51 1011.2
20260507210528 12 313 3.2 17.7 0.00 0.00 0.00 51 1011.3
20260507210028 12 286 8.0 29.0 0.00 0.00 0.00 51 1011.2
20260507205528 12 316 8.0 29.0 0.00 0.00 0.00 49 1011.2
20260507205027 12 281 6.4 20.9 0.00 0.00 0.00 53 1011.1
20260507204525 12 242 6.4 20.9 0.00 0.00 0.00 51 1011.1
20260507204024 12 261 9.7 20.9 0.00 0.00 0.00 51 1011.0
20260507203523 12 298 6.4 19.3 0.00 0.00 0.00 50 1011.1
20260507203025 12 321 4.8 24.1 0.00 0.00 0.00 53 1011.2
20260507202521 12 331 9.7 22.5 0.00 0.00 0.00 54 1011.3
20260507202021 11 313 6.4 29.0 0.00 0.00 0.00 52 1011.4
20260507201521 12 323 4.8 29.0 0.00 0.00 0.00 52 1011.4
20260507201021 12 313 8.0 22.5 0.00 0.00 0.00 55 1011.4
20260507200520 12 337 4.8 17.7 0.00 0.00 0.00 53 1011.4
20260507200022 12 326 6.4 16.1 0.00 0.00 0.00 56 1011.4
20260507195519 12 273 8.0 22.5 0.00 0.00 0.00 54 1011.5
20260507195021 11 280 11.3 22.5 0.00 0.00 0.00 55 1011.4
20260507194522 11 9 6.4 14.5 0.00 0.00 0.00 55 1011.6
20260507194017 11 355 8.0 22.5 0.00 0.00 0.00 54 1011.6
20260507193517 12 266 14.5 22.5 0.00 0.00 0.00 54 1011.6
20260507193024 12 266 3.2 19.3 0.00 0.00 0.00 57 1011.5
20260507192517 12 28 8.0 19.3 0.00 0.00 0.00 56 1011.4
20260507192016 12 310 6.4 14.5 0.00 0.00 0.00 56 1011.6
20260507191516 12 5 3.2 16.1 0.00 0.00 0.00 56 1011.5
20260507191015 12 322 3.2 16.1 0.00 0.00 0.00 53 1011.6
20260507190515 12 82 4.8 19.3 0.00 0.00 0.00 60 1011.5
20260507190015 12 273 6.4 17.7 0.00 0.00 0.00 57 1011.5
20260507185515 11 348 3.2 17.7 0.00 0.00 0.00 61 1011.7
20260507185015 11 287 8.0 17.7 0.00 0.00 0.00 56 1011.7
20260507184515 11 315 3.2 12.9 0.00 0.00 0.00 57 1011.7
20260507184014 11 319 6.4 19.3 0.00 0.00 0.00 56 1011.7
20260507183514 11 304 8.0 19.3 0.00 0.00 0.00 56 1011.7
20260507183018 12 5 4.8 19.3 0.00 0.00 0.00 58 1011.7
20260507182513 12 321 6.4 19.3 0.00 0.00 0.00 57 1011.6
20260507182013 12 319 6.4 16.1 0.00 0.00 0.00 55 1011.7
20260507181512 12 317 8.0 17.7 0.00 0.00 0.00 53 1011.5
20260507181011 12 268 4.8 16.1 0.00 0.00 0.00 56 1011.5
20260507180510 11 306 8.0 16.1 0.00 0.00 0.00 56 1011.7
20260507180014 11 319 3.2 16.1 0.00 0.00 0.00 57 1011.7
20260507175509 11 277 3.2 16.1 0.00 0.00 0.00 58 1011.7
20260507175009 11 226 6.4 12.9 0.00 0.00 0.00 55 1011.6
20260507174509 11 311 3.2 12.9 0.00 0.00 0.00 55 1011.7
20260507174007 11 260 3.2 12.9 0.00 0.00 0.00 56 1011.8
20260507173507 11 355 3.2 17.7 0.00 0.00 0.00 57 1011.8
20260507173008 11 337 6.4 16.1 0.00 0.00 0.00 58 1011.9
20260507172507 11 208 9.7 20.9 0.00 0.00 0.00 54 1011.9
20260507172007 12 251 12.9 20.9 0.00 0.00 0.00 53 1011.9
20260507171505 12 225 6.4 16.1 0.00 0.00 0.00 58 1011.9
20260507171004 11 219 1.6 19.3 0.00 0.00 0.00 56 1012.0
20260507170504 11 216 12.9 19.3 0.00 0.00 0.00 56 1012.0
20260507170003 11 223 8.0 16.1 0.00 0.00 0.00 58 1012.1
20260507165502 11 236 4.8 11.3 0.00 0.00 0.00 59 1012.2
20260507165003 11 248 4.8 16.1 0.00 0.00 0.00 58 1012.1
20260507164505 11 348 4.8 16.1 0.00 0.00 0.00 57 1012.2
20260507164001 11 323 8.0 16.1 0.00 0.00 0.00 60 1012.2
20260507163601 11 267 6.4 16.1 0.00 0.00 0.00 61 1012.1
20260507163100 11 318 6.4 19.3 0.00 0.00 0.00 57 1012.2
20260507162559 11 323 6.4 19.3 0.00 0.00 0.00 61 1012.3
20260507162059 11 261 1.6 12.9 0.00 0.00 0.00 61 1012.4
20260507161606 11 269 4.8 11.3 0.00 0.00 0.00 62 1012.4
20260507161057 11 306 4.8 16.1 0.00 0.00 0.00 62 1012.4
20260507160557 10 260 8.0 16.1 0.00 0.00 0.00 61 1012.5
20260507160057 10 290 4.8 14.5 0.00 0.00 0.00 60 1012.5
20260507155556 11 210 6.4 17.7 0.00 0.00 0.00 57 1012.5
20260507155056 11 322 6.4 19.3 0.00 0.00 0.00 58 1012.6
20260507154557 11 288 8.0 17.7 0.00 0.00 0.00 56 1012.5
20260507154057 11 300 12.9 19.3 0.00 0.00 0.00 54 1012.5
20260507153555 11 251 9.7 19.3 0.00 0.00 0.00 51 1012.5
20260507153057 11 234 8.0 25.7 0.00 0.00 0.00 54 1012.6
20260507152555 11 217 11.3 25.7 0.00 0.00 0.00 54 1012.6
20260507152056 11 217 6.4 24.1 0.00 0.00 0.00 61 1012.6
20260507151552 11 199 12.9 22.5 0.00 0.00 0.00 60 1012.6
20260507151051 10 250 8.0 19.3 0.00 0.00 0.00 56 1012.8
20260507150551 10 242 12.9 19.3 0.00 0.00 0.00 59 1012.7
20260507150051 10 308 3.2 19.3 0.00 0.00 0.00 61 1012.8
20260507145551 10 241 9.7 19.3 0.00 0.00 0.00 62 1012.8
20260507145052 11 205 12.9 20.9 0.00 0.00 0.00 60 1012.8
20260507144550 11 232 9.7 16.1 0.00 0.00 0.00 60 1012.8
20260507144050 10 299 8.0 16.1 0.00 0.00 0.00 62 1012.8
20260507143547 10 257 6.4 16.1 0.00 0.00 0.00 61 1012.9
20260507143104 11 226 8.0 14.5 0.00 0.00 0.00 64 1013.0
20260507142545 10 247 3.2 8.0 0.00 0.00 0.00 65 1013.0
20260507142045 10 302 4.8 11.3 0.00 0.00 0.00 62 1013.1
20260507141603 10 302 4.8 17.7 0.00 0.00 0.00 63 1013.2
20260507141046 10 256 4.8 17.7 0.00 0.00 0.00 67 1013.3
20260507140544 10 243 6.4 16.1 0.00 0.00 0.00 67 1013.4
20260507140041 10 288 4.8 16.1 0.00 0.03 0.00 68 1013.3
20260507135539 10 279 3.2 12.9 0.00 0.03 0.00 70 1013.4
20260507135038 9 286 1.6 14.5 0.00 0.03 0.00 69 1013.4
20260507134540 9 232 3.2 12.9 0.00 0.03 0.00 70 1013.5
20260507134036 9 255 6.4 11.3 0.00 0.03 0.00 72 1013.5
20260507133535 9 222 1.6 9.7 0.00 0.03 0.00 73 1013.5
20260507133037 9 232 1.6 4.8 0.00 0.03 0.00 74 1013.6
20260507132533 8 111 1.6 6.4 0.00 0.03 0.00 75 1013.6
20260507132031 8 107 1.6 6.4 0.00 0.03 0.00 76 1013.7
20260507131537 8 222 0.0 6.4 0.00 0.03 0.00 76 1013.8
20260507131033 8 217 3.2 6.4 0.00 0.03 0.00 76 1013.7
20260507130528 7 190 0.0 4.8 0.00 0.03 0.00 78 1013.8
20260507130038 7 142 1.6 6.4 0.00 0.03 0.00 78 1013.8
20260507125525 7 225 0.0 6.4 0.00 0.03 0.00 80 1013.8
20260507125027 7 225 3.2 4.8 0.00 0.03 0.00 80 1013.7
20260507124522 6 184 1.6 6.4 0.00 0.03 0.00 81 1013.7
20260507124022 6 360 0.0 8.0 0.00 0.03 0.00 82 1013.7
20260507123521 6 360 3.2 8.0 0.00 0.03 0.00 82 1013.8
20260507123021 6 226 3.2 9.7 0.00 0.03 0.00 82 1013.7
20260507122519 6 216 3.2 9.7 0.00 0.03 0.00 83 1013.7
20260507122018 5 227 3.2 6.4 0.00 0.03 0.00 83 1013.8
20260507121518 5 186 3.2 6.4 0.00 0.03 0.00 84 1013.8
20260507121017 5 360 1.6 6.4 0.00 0.03 0.00 86 1013.8
20260507120515 5 215 1.6 6.4 0.00 0.03 0.00 88 1013.8
20260507120014 5 360 1.6 4.8 0.00 0.05 0.00 89 1013.7
20260507115514 4 360 0.0 0.0 0.00 0.05 0.00 90 1013.8
20260507115013 4 360 0.0 0.0 0.00 0.05 0.00 91 1013.8
20260507114520 3 360 0.0 0.0 0.00 0.05 0.00 91 1013.7
20260507114013 3 360 0.0 0.0 0.00 0.05 0.00 92 1013.7
20260507113512 3 360 0.0 0.0 0.00 0.05 0.00 93 1013.7
20260507113012 3 360 0.0 0.0 0.00 0.05 0.00 93 1013.7
20260507112514 2 360 0.0 0.0 0.00 0.05 0.00 94 1013.8
20260507112012 2 360 0.0 0.0 0.00 0.05 0.00 94 1013.7
20260507111511 2 360 0.0 0.0 0.00 0.05 0.00 93 1013.6
20260507111011 2 360 0.0 0.0 0.00 0.05 0.00 93 1013.6
20260507110511 2 360 0.0 0.0 0.00 0.05 0.00 93 1013.5
20260507110013 2 360 0.0 0.0 0.00 0.08 0.00 93 1013.4
20260507105511 2 360 0.0 0.0 0.00 0.08 0.00 93 1013.5
20260507105013 2 360 0.0 0.0 0.00 0.08 0.00 93 1013.4
20260507104511 1 360 0.0 0.0 0.00 0.08 0.00 93 1013.4
20260507104010 1 360 0.0 0.0 0.00 0.08 0.00 93 1013.4
20260507103510 1 360 0.0 0.0 0.00 0.08 0.00 93 1013.4
20260507103010 1 360 0.0 0.0 0.00 0.08 0.00 93 1013.3
20260507102509 1 360 0.0 0.0 0.00 0.08 0.00 93 1013.2
20260507102009 1 360 0.0 0.0 0.00 0.08 0.00 92 1013.2
20260507101510 1 360 0.0 0.0 0.00 0.08 0.00 92 1013.1
20260507101009 1 360 0.0 0.0 0.00 0.08 0.00 92 1013.1
20260507100508 1 360 0.0 0.0 0.00 0.08 0.00 92 1013.1
20260507100008 2 360 0.0 0.0 0.00 0.10 0.00 92 1013.1
20260507095507 2 360 0.0 0.0 0.00 0.10 0.00 92 1013.1
20260507095009 2 360 0.0 0.0 0.00 0.10 0.00 92 1013.1
20260507094506 2 360 0.0 0.0 0.00 0.10 0.00 92 1013.1
20260507094011 2 360 0.0 0.0 0.00 0.10 0.00 93 1013.2
20260507093506 2 360 0.0 0.0 0.00 0.10 0.00 92 1013.2
20260507093006 2 360 0.0 0.0 0.00 0.10 0.00 92 1013.2
20260507092506 2 360 0.0 0.0 0.00 0.10 0.00 92 1013.2
20260507092005 2 360 0.0 0.0 0.00 0.10 0.00 92 1013.2
20260507091508 2 360 0.0 0.0 0.00 0.10 0.00 92 1013.1
20260507091005 2 360 0.0 0.0 0.00 0.10 0.00 92 1013.2
20260507090505 2 360 0.0 0.0 0.00 0.10 0.00 92 1013.2
20260507090004 2 360 0.0 0.0 0.00 0.15 0.00 92 1013.3
20260507085503 2 360 0.0 0.0 0.00 0.15 0.00 92 1013.2
20260507085003 2 360 0.0 0.0 0.00 0.15 0.00 92 1013.1
20260507084503 2 360 0.0 0.0 0.00 0.15 0.00 92 1013.2
20260507084001 2 360 0.0 0.0 0.00 0.15 0.00 92 1013.3
20260507083501 2 360 0.0 0.0 0.00 0.15 0.00 92 1013.3
20260507083000 2 360 0.0 0.0 0.00 0.15 0.00 91 1013.3
20260507082601 2 360 0.0 0.0 0.00 0.15 0.00 91 1013.4
20260507082100 2 360 0.0 0.0 0.00 0.15 0.00 91 1013.4
20260507081602 2 360 0.0 0.0 0.00 0.15 0.00 91 1013.5
20260507081101 2 360 0.0 0.0 0.00 0.15 0.00 91 1013.4
20260507080559 2 360 0.0 0.0 0.00 0.15 0.00 91 1013.4
20260507080116 2 360 0.0 0.0 0.00 0.15 0.00 91 1013.4
20260507075559 2 360 0.0 0.0 0.00 0.15 0.00 90 1013.5
20260507075057 2 360 0.0 0.0 0.00 0.15 0.00 90 1013.5
20260507074558 3 360 0.0 0.0 0.00 0.15 0.00 90 1013.5
20260507074054 3 360 0.0 0.0 0.00 0.15 0.00 90 1013.4
20260507073558 3 360 0.0 0.0 0.00 0.15 0.00 90 1013.5
20260507073053 3 360 0.0 0.0 0.00 0.15 0.00 89 1013.4
20260507072555 3 360 0.0 0.0 0.00 0.15 0.00 89 1013.5
20260507072052 3 360 0.0 0.0 0.00 0.15 0.00 89 1013.4
20260507071551 3 360 0.0 0.0 0.00 0.15 0.00 89 1013.4
20260507071050 3 360 0.0 0.0 0.00 0.15 0.00 88 1013.5
20260507070550 3 360 0.0 0.0 0.00 0.15 0.00 88 1013.6
20260507065552 3 360 0.0 0.0 0.00 0.20 0.00 88 1013.5
20260507065048 3 360 0.0 0.0 0.00 0.20 0.00 88 1013.6
20260507064619 3 360 0.0 0.0 0.00 0.20 0.00 88 1013.7
20260507064052 4 360 0.0 0.0 0.00 0.20 0.00 87 1013.6
20260507063547 4 360 0.0 0.0 0.00 0.20 0.00 88 1013.6
20260507063051 4 360 0.0 0.0 0.00 0.20 0.00 87 1013.6
20260507062546 3 360 0.0 0.0 0.00 0.20 0.00 87 1013.6
20260507062046 3 360 0.0 0.0 0.00 0.20 0.00 87 1013.8
20260507061545 3 360 0.0 0.0 0.00 0.20 0.00 88 1013.8
20260507061044 3 360 0.0 0.0 0.00 0.20 0.00 88 1013.8
20260507060544 3 360 0.0 0.0 0.00 0.20 0.00 87 1013.9
20260507060107 3 360 0.0 0.0 0.00 0.23 0.00 87 1013.9
20260507055547 3 360 0.0 0.0 0.00 0.23 0.00 87 1013.9
20260507055043 4 360 0.0 0.0 0.00 0.23 0.00 86 1013.9
20260507054548 4 360 0.0 0.0 0.00 0.23 0.00 86 1014.0
20260507054042 4 360 0.0 0.0 0.00 0.23 0.00 86 1014.0
20260507053542 4 360 0.0 0.0 0.00 0.23 0.00 86 1014.1
20260507053041 4 360 0.0 0.0 0.00 0.23 0.00 86 1014.0
20260507052541 4 360 0.0 0.0 0.00 0.23 0.00 86 1014.1
20260507052041 4 360 0.0 0.0 0.00 0.23 0.00 86 1014.0
20260507051558 4 360 0.0 0.0 0.00 0.23 0.00 86 1014.0
20260507051039 4 360 0.0 0.0 0.00 0.23 0.00 87 1014.1
20260507050538 4 360 0.0 0.0 0.00 0.23 0.00 86 1014.1
20260507050045 4 360 0.0 0.0 0.00 0.25 0.00 85 1014.1
20260507045538 4 360 0.0 0.0 0.00 0.25 0.00 86 1014.2
20260507045038 4 360 0.0 0.0 0.00 0.25 0.00 86 1014.2
20260507044538 4 360 0.0 0.0 0.00 0.25 0.00 85 1014.3
20260507044040 4 360 0.0 0.0 0.00 0.25 0.00 85 1014.3
20260507043535 4 360 0.0 0.0 0.00 0.25 0.00 85 1014.4
20260507043035 4 360 0.0 0.0 0.00 0.25 0.00 85 1014.5
20260507042534 4 360 0.0 0.0 0.00 0.25 0.00 85 1014.5
20260507042033 4 360 0.0 0.0 0.00 0.25 0.00 85 1014.4
20260507041532 4 360 0.0 0.0 0.00 0.25 0.00 85 1014.4
20260507041032 4 360 0.0 0.0 0.00 0.25 0.00 84 1014.5
20260507040533 5 360 0.0 0.0 0.00 0.25 0.00 84 1014.5
20260507040030 5 360 0.0 0.0 0.00 0.30 0.25 84 1014.6
20260507035530 5 360 0.0 0.0 0.00 0.30 0.25 84 1014.5
20260507035029 5 360 0.0 0.0 0.00 0.30 0.25 84 1014.6
20260507034530 5 355 0.0 0.0 0.00 0.30 0.25 83 1014.6
20260507034027 5 355 0.0 0.0 0.00 0.30 0.25 83 1014.6
20260507033528 5 355 0.0 0.0 0.00 0.30 0.25 82 1014.5
20260507033026 5 355 0.0 0.0 0.00 0.30 0.25 82 1014.3
20260507032526 5 355 0.0 0.0 0.00 0.30 0.25 82 1014.5
20260507032027 5 355 0.0 0.0 0.00 0.30 0.25 82 1014.5
20260507031524 5 355 0.0 0.0 0.00 0.30 0.25 82 1014.6
20260507031024 5 355 0.0 0.0 0.00 0.30 0.25 80 1014.6
20260507030524 5 355 0.0 0.0 0.00 0.30 0.25 80 1014.5
20260507030028 5 355 0.0 0.0 0.00 0.36 0.25 79 1014.4
20260507025522 6 355 0.0 0.0 0.00 0.36 0.25 79 1014.5
20260507025022 6 355 0.0 0.0 0.00 0.36 0.25 78 1014.4
20260507024526 6 355 0.0 0.0 0.00 0.36 0.25 78 1014.5
20260507024024 6 355 0.0 0.0 0.00 0.36 0.25 77 1014.4
20260507023520 6 360 0.0 0.0 0.00 0.36 0.25 77 1014.4
20260507023020 6 360 0.0 0.0 0.00 0.36 0.25 77 1014.4
20260507022520 6 360 0.0 0.0 0.00 0.36 0.25 77 1014.3
20260507022020 6 360 0.0 0.0 0.00 0.36 0.25 76 1014.3
20260507021520 6 360 0.0 0.0 0.00 0.36 0.25 76 1014.2
20260507021018 6 360 0.0 0.0 0.00 0.36 0.25 76 1014.1
20260507020518 6 355 0.0 0.0 0.00 0.36 0.25 76 1014.2
20260507020018 6 355 0.0 0.0 0.00 0.41 0.25 76 1014.2
20260507015523 6 355 0.0 0.0 0.00 0.41 0.25 75 1014.2
20260507015017 6 355 0.0 0.0 0.00 0.41 0.25 74 1014.3
20260507014518 6 355 0.0 0.0 0.00 0.41 0.25 75 1014.3
20260507014017 6 355 0.0 0.0 0.00 0.41 0.25 74 1014.3
20260507013516 6 355 0.0 0.0 0.00 0.41 0.25 74 1014.3
20260507013016 6 355 0.0 0.0 0.00 0.41 0.25 74 1014.2
20260507012515 6 355 0.0 0.0 0.00 0.41 0.25 74 1014.2
20260507012016 6 355 0.0 0.0 0.00 0.41 0.25 74 1014.2
20260507011515 6 355 0.0 0.0 0.00 0.41 0.25 74 1014.2
20260507011014 6 355 0.0 0.0 0.00 0.41 0.25 74 1014.3
20260507010514 6 355 0.0 0.0 0.00 0.41 0.25 74 1014.2
20260507010017 6 355 0.0 6.4 0.00 0.46 0.25 72 1014.1
20260507005513 6 355 1.6 6.4 0.00 0.46 0.25 73 1014.1
20260507005013 6 355 0.0 4.8 0.00 0.46 0.25 73 1014.0
20260507004518 6 355 1.6 4.8 0.00 0.46 0.25 73 1014.0
20260507004012 6 355 0.0 1.6 0.00 0.46 0.25 73 1014.1
20260507003512 6 355 0.0 1.6 0.00 0.46 0.25 73 1014.1
20260507003011 6 355 0.0 3.2 0.00 0.46 0.25 73 1014.0
20260507002511 6 355 1.6 3.2 0.00 0.46 0.25 72 1014.2
20260507002014 6 355 0.0 1.6 0.00 0.46 0.25 71 1014.0
20260507001515 7 355 0.0 4.8 0.00 0.46 0.25 71 1013.9
20260507001008 7 355 1.6 4.8 0.00 0.46 0.25 71 1013.9
20260507000508 7 355 1.6 8.0 0.00 0.46 0.25 72 1013.8
20260507000008 7 5 3.2 8.0 0.00 0.53 0.25 73 1013.7
20260506235508 7 319 0.0 8.0 0.00 0.53 0.25 74 1013.8
20260506235009 7 319 1.6 12.9 0.00 0.53 0.25 73 1013.8
20260506234509 7 312 4.8 12.9 0.00 0.53 0.25 72 1013.8
20260506234007 7 311 1.6 12.9 0.00 0.53 0.25 72 1013.8